Location: Bothwell
(42.3833°S, 147.0000°E)
Time: 19:58:07
(UTC+11:00)

AO-85 - Pass Details

Date: 26 September 2022
Orbit: 513 x 757 km, 64.8° (Epoch: 24 November)

Event Time Altitude Azimuth Distance (km) Brightness Sun altitude
Rises 05:30:46 0° 207° (SSW) 3,079 ? -5.3°
Reaches altitude 10° 05:33:18 10° 197° (SSW) 2,195 ? -4.9°
Maximum altitude 05:37:50 32° 133° (SE) 1,244 ? -4.0°
Drops below altitude 10° 05:42:31 10° 70° (ENE) 2,276 ? -3.2°
Sets 05:45:10 0° 60° (ENE) 3,209 ? -2.7°
